C/2022 U1 ( Leonard )

Japanese version
Home page
Updated on February 29, 2024

---------------------------------------------------------------------

* Profile

Discovery Date October 20, 2022
Magnitude 19.8 mag
Discoverer G. J. Leonard (Mt. Lemmon)

* Pictures

* Orbital Elements

Epoch 2024 Mar. 31.0 TT = JDT 2460400.5
T 2024 Mar. 25.87036 TT                                 Rudenko
q   4.2020905            (2000.0)            P               Q
z  +0.0001438      Peri.   78.58442     +0.63698667     -0.17770709
 +/-0.0000029      Node    72.52639     -0.30021952     -0.95342710
e   0.9993955      Incl.  128.14963     +0.71001142     -0.24371491
>From 490 observations 2022 Sept. 23-2024 Feb. 17, mean residual 0".6.

* Magnitudes Graph

        m1 = 8.0 + 5 log d + 10.0 log r

---------------------------------------------------------------------

The orbital elements are published on M.P.E.C. 2024-D126.
The magnitudes graphs are made with Comet for Windows.

---------------------------------------------------------------------

Copyright(C) Seiichi Yoshida (comet@aerith.net). All rights reserved.